Flag for U.S.A. Weather past 2 weeks in Paterson, New Jersey, U.S.A.

Now
75 °F

Clear.


Feels Like: 76 °F
Forecast: 76 / 85 °F
Wind: No wind

Location: Essex County Airport

Current Time: Jul 8, 2015 at 3:14:21 AM

Latest Report: Jul 8, 2015 at 2:53 AM


Visibility: 7 mi

Pressure: 29.94 "Hg

Humidity: 79%

Dew point: 68 °F

Location of PatersonLocation

Historic Weather in Paterson — Graph

°F

Paterson temperature yesterday

Maximum temperature yesterday: 88 °F (at 3:53 PM)
Minimum temperature yesterday: 72 °F (at 2:53 AM)
Average temperature yesterday: 80 °F

Past Weeks' High & Low Weather Summary

 TemperatureHumidityPressure
High89 °F (Jun 23, 4:53 PM)97% (Jun 28, 9:53 AM)30.19 "Hg (Jun 28, 9:53 AM)
Low57 °F (Jun 25, 5:53 AM)35% (Jul 3, 2:53 PM)29.69 "Hg (Jun 28, 7:53 AM)
Average72 °F67%29.96 "Hg
* Reported Jun 23 1:53 AM — Jul 8 1:53 AM, Paterson, Weather by CustomWeather, © 2015

Note: Actual official high and low records may vary slightly from our data, if they occured in-between our weather recording intervals... More about our weather records

Advertising

Paterson weather history for previous 24 hours

 ConditionsComfort  
Time TempWeatherWind HumidityBarometerVisibility
1:53 AM
Wed, Jul 8
76 °FClear.3 mph77%29.95 "Hg8 mi
12:53 AM77 °FClear.No wind77%29.96 "Hg8 mi
11:53 PM
Tue, Jul 7
78 °FClear.3 mph74%29.98 "Hg9 mi
10:53 PM79 °FClear.3 mph72%29.98 "Hg10 mi
9:53 PM81 °FPassing clouds.No wind65%29.98 "Hg10 mi
8:53 PM82 °FSunny.3 mph63%29.97 "Hg10 mi
7:53 PM83 °FPassing clouds.No wind63%29.95 "Hg10 mi
6:53 PM85 °FPassing clouds.7 mph59%29.95 "Hg10 mi
5:53 PM87 °FPassing clouds.9 mph55%29.94 "Hg10 mi
4:53 PM87 °FBroken clouds.8 mph53%29.94 "Hg10 mi
3:53 PM88 °FScattered clouds.7 mph50%29.95 "Hg10 mi
2:53 PM87 °FScattered clouds.7 mph53%29.97 "Hg10 mi
1:53 PM86 °FScattered clouds.6 mph55%29.99 "Hg10 mi
12:53 PM84 °FScattered clouds.7 mph59%30.00 "Hg10 mi
11:53 AM83 °FScattered clouds.8 mph65%30.03 "Hg10 mi
10:53 AM82 °FPassing clouds.7 mph65%30.04 "Hg10 mi
9:53 AM79 °FPartly sunny.6 mph74%30.05 "Hg10 mi
8:53 AM77 °FMostly cloudy.6 mph82%30.06 "Hg10 mi
8:01 AM77 °FBroken clouds.7 mph79%30.04 "Hg10 mi
6:53 AM76 °FPartly sunny.No wind82%30.05 "Hg10 mi
5:53 AM74 °FPartly cloudy.No wind88%30.06 "Hg9 mi
4:53 AM74 °FPassing clouds.6 mph88%30.05 "Hg10 mi
3:53 AM73 °FMostly cloudy.No wind88%30.06 "Hg10 mi
Weather by CustomWeather, © 2015

See weather overviewHow to use our weather pages